QPF
0.04 0.04 0.05 0.06 0.05 0.05 0.05 0.05 0.06 0.06 0.05 0.03 0.03 0.03 0.03 0.03 0.05 0.04 0.05 0.03 0.03 0.03 0.04 0.04 0.05 0.06 0.06 0.07 0.08 0.07 0.05 0.04 0.04 0.04 0.04 0.04 0.04 0.05
0.04 0.05 0.06 0.07 0.05 0.04 0.04 0.05 0.06 0.06 0.05 0.04 0.04 0.03 0.03 0.02 0.04 0.04 0.06 0.05 0.03 0.03 0.04 0.04 0.04 0.05 0.05 0.05 0.05 0.05 0.05 0.04 0.03 0.03 0.03 0.03 0.03 0.03
0.04 0.04 0.05 0.06 0.05 0.05 0.05 0.05 0.05 0.05 0.05 0.04 0.05 0.04 0.04 0.04 0.04 0.05 0.07 0.07 0.05 0.04 0.04 0.04 0.04 0.04 0.05 0.04 0.03 0.03 0.03 0.04 0.04 0.03 0.03 0.03 0.03 0.03
0.04 0.05 0.06 0.05 0.06 0.05 0.04 0.05 0.05 0.04 0.05 0.05 0.05 0.04 0.03 0.04 0.05 0.06 0.07 0.07 0.06 0.06 0.07 0.07 0.05 0.04 0.05 0.05 0.04 0.03 0.04 0.04 0.05 0.04 0.02 0.02 0.02 0.02
0.03 0.05 0.04 0.06 0.07 0.06 0.05 0.05 0.05 0.04 0.04 0.04 0.04 0.04 0.03 0.04 0.04 0.05 0.06 0.07 0.06 0.07 0.08 0.08 0.07 0.06 0.06 0.07 0.05 0.04 0.04 0.04 0.03 0.03 0.02 0.01 0.01 0.01
0.02 0.02 0.01 0.02 0.04 0.04 0.03 0.05 0.05 0.05 0.04 0.04 0.04 0.04 0.05 0.05 0.05 0.06 0.06 0.08 0.07 0.06 0.07 0.07 0.07 0.06 0.06 0.08 0.07 0.04 0.04 0.04 0.03 0.03 0.03 0.02 0.01 0.01
0.02 0.01 0.01 0.00 0.01 0.02 0.03 0.04 0.06 0.06 0.05 0.04 0.04 0.04 0.06 0.07 0.05 0.06 0.08 0.08 0.08 0.07 0.06 0.08 0.08 0.06 0.05 0.05 0.06 0.06 0.06 0.05 0.04 0.03 0.03 0.02 0.01 0.01
0.02 0.01 0.01 0.00 0.00 0.01 0.02 0.03 0.04 0.05 0.05 0.05 0.05 0.05 0.05 0.08 0.07 0.06 0.08 0.10 0.09 0.08 0.07 0.07 0.10 0.07 0.06 0.05 0.05 0.04 0.04 0.04 0.05 0.04 0.04 0.03 0.02 0.01
0.01 0.01 0.01 0.01 0.01 0.02 0.03 0.03 0.02 0.02 0.04 0.04 0.05 0.05 0.06 0.06 0.07 0.07 0.09 0.11 0.12 0.10 0.10 0.07 0.08 0.08 0.06 0.04 0.04 0.03 0.03 0.03 0.04 0.05 0.06 0.05 0.04 0.03
0.01 0.01 0.02 0.03 0.03 0.02 0.03 0.04 0.02 0.01 0.01 0.01 0.03 0.03 0.05 0.07 0.08 0.07 0.08 0.09 0.11 0.13 0.12 0.10 0.08 0.07 0.06 0.05 0.04 0.03 0.03 0.03 0.03 0.03 0.04 0.04 0.05 0.04
0.01 0.02 0.02 0.03 0.03 0.02 0.02 0.03 0.03 0.02 0.01 0.01 0.01 0.02 0.04 0.06 0.07 0.05 0.06 0.07 0.08 0.11 0.12 0.11 0.08 0.07 0.06 0.06 0.04 0.04 0.03 0.03 0.03 0.02 0.03 0.03 0.03 0.03
0.01 0.01 0.00 0.01 0.01 0.01 0.02 0.03 0.03 0.03 0.03 0.03 0.02 0.01 0.02 0.03 0.04 0.04 0.05 0.05 0.05 0.07 0.07 0.10 0.09 0.07 0.06 0.05 0.05 0.04 0.03 0.02 0.02 0.02 0.02 0.02 0.02 0.02
0.01 0.01 0.00 0.01 0.01 0.01 0.01 0.02 0.01 0.02 0.03 0.03 0.03 0.02 0.02 0.02 0.03 0.03 0.04 0.05 0.04 0.05 0.05 0.06 0.08 0.08 0.07 0.06 0.05 0.04 0.03 0.02 0.02 0.02 0.02 0.02 0.02 0.02
0.01 0.00 0.00 0.01 0.01 0.01 0.01 0.01 0.01 0.01 0.02 0.02 0.02 0.02 0.02 0.02 0.02 0.03 0.03 0.03 0.03 0.03 0.04 0.03 0.04 0.05 0.06 0.06 0.05 0.04 0.03 0.02 0.01 0.01 0.01 0.01 0.01 0.01
0.01 0.01 0.01 0.01 0.01 0.01 0.01 0.01 0.01 0.01 0.02 0.01 0.01 0.01 0.01 0.01 0.01 0.02 0.02 0.02 0.02 0.02 0.03 0.02 0.02 0.03 0.04 0.04 0.04 0.03 0.03 0.03 0.02 0.01 0.01 0.01 0.01 0.01
0.01 0.01 0.01 0.01 0.01 0.01 0.01 0.01 0.01 0.01 0.01 0.01 0.00 0.00 0.00 0.01 0.01 0.01 0.01 0.01 0.02 0.01 0.02 0.02 0.02 0.02 0.03 0.03 0.03 0.03 0.03 0.03 0.03 0.03 0.02 0.02 0.02 0.02
0.01 0.01 0.01 0.01 0.01 0.01 0.01 0.01 0.01 0.01 0.01 0.01 0.01 0.00 0.01 0.01 0.00 0.01 0.01 0.02 0.01 0.01 0.01 0.01 0.02 0.02 0.03 0.03 0.02 0.02 0.03 0.03 0.04 0.05 0.04 0.03 0.02 0.02
0.01 0.01 0.01 0.01 0.01 0.01 0.01 0.01 0.01 0.01 0.01 0.01 0.01 0.01 0.01 0.01 0.01 0.01 0.02 0.02 0.02 0.02 0.01 0.01 0.01 0.02 0.02 0.02 0.03 0.03 0.03 0.02 0.02 0.03 0.04 0.04 0.04 0.03
0.01 0.01 0.01 0.02 0.02 0.02 0.01 0.02 0.02 0.02 0.02 0.01 0.01 0.01 0.01 0.01 0.01 0.01 0.01 0.02 0.02 0.02 0.01 0.01 0.01 0.02 0.02 0.02 0.01 0.02 0.02 0.02 0.01 0.02 0.01 0.02 0.02 0.02
0.00 0.01 0.01 0.02 0.02 0.02 0.02 0.02 0.03 0.03 0.03 0.03 0.03 0.02 0.01 0.01 0.01 0.02 0.02 0.02 0.02 0.02 0.02 0.01 0.01 0.02 0.02 0.01 0.01 0.01 0.01 0.02 0.02 0.01 0.01 0.01 0.01 0.01
0.01 0.01 0.01 0.01 0.02 0.03 0.03 0.03 0.03 0.03 0.04 0.04 0.04 0.03 0.03 0.02 0.02 0.02 0.03 0.04 0.04 0.03 0.02 0.01 0.01 0.02 0.02 0.02 0.02 0.01 0.01 0.02 0.02 0.02 0.02 0.02 0.02 0.01
0.01 0.02 0.02 0.01 0.02 0.03 0.04 0.04 0.05 0.05 0.05 0.05 0.06 0.05 0.04 0.03 0.03 0.02 0.02 0.02 0.03 0.04 0.03 0.02 0.02 0.02 0.03 0.03 0.03 0.03 0.02 0.02 0.02 0.03 0.03 0.03 0.02 0.01
0.01 0.02 0.03 0.03 0.03 0.04 0.05 0.06 0.07 0.08 0.08 0.09 0.08 0.08 0.07 0.05 0.05 0.04 0.04 0.03 0.02 0.03 0.03 0.04 0.04 0.03 0.04 0.04 0.04 0.04 0.03 0.02 0.02 0.02 0.02 0.02 0.01 0.01
MSLP
1013.03 1012.97 1013.01 1013.13 1013.33 1013.56 1013.81 1014.03 1014.19 1014.27 1014.28 1014.22 1014.10 1013.96 1013.81 1013.70 1013.63 1013.64 1013.72 1013.88 1014.11 1014.40 1014.74 1015.10 1015.46 1015.80 1016.09 1016.33 1016.52 1016.65 1016.75 1016.82 1016.89 1016.97 1017.08 1017.21 1017.37 1017.54
1013.17 1013.09 1013.10 1013.19 1013.36 1013.58 1013.83 1014.06 1014.25 1014.38 1014.43 1014.40 1014.32 1014.19 1014.04 1013.91 1013.82 1013.78 1013.81 1013.92 1014.11 1014.37 1014.67 1015.00 1015.32 1015.64 1015.91 1016.13 1016.31 1016.44 1016.55 1016.64 1016.73 1016.84 1016.97 1017.11 1017.27 1017.42
1013.35 1013.26 1013.24 1013.30 1013.43 1013.62 1013.85 1014.08 1014.28 1014.43 1014.51 1014.53 1014.48 1014.38 1014.26 1014.13 1014.03 1013.97 1013.97 1014.05 1014.20 1014.41 1014.67 1014.96 1015.25 1015.53 1015.78 1015.99 1016.16 1016.30 1016.42 1016.53 1016.64 1016.77 1016.90 1017.05 1017.20 1017.33
1013.52 1013.43 1013.40 1013.43 1013.52 1013.68 1013.87 1014.08 1014.28 1014.44 1014.55 1014.61 1014.60 1014.54 1014.44 1014.34 1014.25 1014.19 1014.18 1014.24 1014.36 1014.53 1014.75 1014.99 1015.25 1015.49 1015.72 1015.91 1016.08 1016.22 1016.34 1016.46 1016.58 1016.71 1016.84 1016.97 1017.09 1017.19
1013.62 1013.55 1013.51 1013.52 1013.59 1013.72 1013.88 1014.07 1014.25 1014.41 1014.54 1014.62 1014.65 1014.63 1014.58 1014.52 1014.45 1014.41 1014.41 1014.45 1014.55 1014.69 1014.88 1015.09 1015.31 1015.52 1015.72 1015.90 1016.05 1016.18 1016.30 1016.41 1016.52 1016.63 1016.73 1016.83 1016.91 1016.97
1013.58 1013.55 1013.53 1013.54 1013.60 1013.70 1013.83 1013.99 1014.16 1014.32 1014.46 1014.56 1014.62 1014.64 1014.63 1014.61 1014.58 1014.57 1014.58 1014.63 1014.72 1014.84 1015.00 1015.19 1015.38 1015.57 1015.75 1015.90 1016.04 1016.16 1016.26 1016.35 1016.43 1016.51 1016.56 1016.61 1016.63 1016.63
1013.39 1013.39 1013.40 1013.43 1013.49 1013.58 1013.70 1013.84 1013.99 1014.14 1014.28 1014.39 1014.48 1014.54 1014.57 1014.58 1014.59 1014.60 1014.64 1014.70 1014.79 1014.92 1015.07 1015.24 1015.41 1015.59 1015.75 1015.90 1016.03 1016.13 1016.21 1016.27 1016.32 1016.34 1016.34 1016.32 1016.28 1016.23
1013.05 1013.09 1013.13 1013.18 1013.25 1013.34 1013.45 1013.58 1013.72 1013.86 1014.00 1014.12 1014.22 1014.30 1014.36 1014.41 1014.44 1014.49 1014.54 1014.62 1014.73 1014.86 1015.01 1015.18 1015.36 1015.53 1015.70 1015.85 1015.98 1016.07 1016.14 1016.18 1016.18 1016.16 1016.11 1016.03 1015.94 1015.84
1012.60 1012.67 1012.74 1012.82 1012.90 1012.99 1013.11 1013.23 1013.36 1013.50 1013.63 1013.75 1013.86 1013.95 1014.03 1014.09 1014.16 1014.22 1014.30 1014.39 1014.51 1014.65 1014.82 1015.00 1015.19 1015.39 1015.57 1015.73 1015.87 1015.98 1016.05 1016.07 1016.06 1016.01 1015.92 1015.81 1015.68 1015.54
1012.12 1012.21 1012.29 1012.38 1012.47 1012.57 1012.68 1012.80 1012.93 1013.06 1013.19 1013.31 1013.42 1013.51 1013.60 1013.68 1013.75 1013.83 1013.92 1014.03 1014.17 1014.33 1014.51 1014.71 1014.92 1015.14 1015.35 1015.55 1015.71 1015.84 1015.93 1015.97 1015.97 1015.92 1015.82 1015.70 1015.56 1015.42
1011.70 1011.77 1011.85 1011.93 1012.02 1012.11 1012.22 1012.33 1012.45 1012.58 1012.70 1012.82 1012.93 1013.03 1013.12 1013.21 1013.29 1013.38 1013.49 1013.61 1013.76 1013.93 1014.13 1014.35 1014.58 1014.83 1015.07 1015.30 1015.51 1015.68 1015.80 1015.88 1015.91 1015.89 1015.82 1015.72 1015.60 1015.48
1011.40 1011.43 1011.47 1011.52 1011.58 1011.65 1011.74 1011.84 1011.95 1012.07 1012.19 1012.31 1012.42 1012.53 1012.63 1012.72 1012.82 1012.92 1013.04 1013.17 1013.33 1013.52 1013.73 1013.96 1014.22 1014.48 1014.75 1015.01 1015.25 1015.47 1015.64 1015.77 1015.85 1015.89 1015.88 1015.83 1015.77 1015.70
1011.25 1011.20 1011.18 1011.17 1011.18 1011.21 1011.26 1011.34 1011.43 1011.54 1011.65 1011.77 1011.89 1012.01 1012.13 1012.24 1012.35 1012.48 1012.61 1012.76 1012.93 1013.13 1013.35 1013.59 1013.86 1014.13 1014.42 1014.70 1014.96 1015.21 1015.43 1015.61 1015.76 1015.86 1015.93 1015.97 1015.98 1015.98
1011.21 1011.07 1010.96 1010.86 1010.80 1010.77 1010.77 1010.80 1010.86 1010.95 1011.06 1011.18 1011.32 1011.45 1011.59 1011.73 1011.87 1012.02 1012.18 1012.36 1012.55 1012.77 1013.00 1013.25 1013.51 1013.79 1014.07 1014.36 1014.63 1014.90 1015.15 1015.38 1015.59 1015.77 1015.91 1016.04 1016.14 1016.23
1011.23 1010.99 1010.77 1010.58 1010.42 1010.31 1010.24 1010.22 1010.24 1010.30 1010.39 1010.51 1010.64 1010.79 1010.96 1011.13 1011.31 1011.51 1011.71 1011.92 1012.15 1012.39 1012.64 1012.90 1013.17 1013.44 1013.72 1013.99 1014.27 1014.54 1014.81 1015.07 1015.32 1015.56 1015.79 1016.00 1016.19 1016.37
1011.22 1010.89 1010.56 1010.27 1010.01 1009.81 1009.66 1009.56 1009.53 1009.54 1009.60 1009.70 1009.83 1009.99 1010.17 1010.38 1010.60 1010.84 1011.10 1011.37 1011.65 1011.93 1012.22 1012.50 1012.79 1013.06 1013.33 1013.60 1013.87 1014.14 1014.41 1014.69 1014.97 1015.25 1015.54 1015.82 1016.09 1016.35
1011.12 1010.70 1010.29 1009.90 1009.55 1009.25 1009.01 1008.84 1008.73 1008.68 1008.69 1008.75 1008.85 1009.00 1009.19 1009.42 1009.67 1009.96 1010.27 1010.60 1010.95 1011.30 1011.65 1011.98 1012.31 1012.61 1012.91 1013.18 1013.45 1013.72 1013.99 1014.27 1014.57 1014.88 1015.21 1015.55 1015.88 1016.21
1010.89 1010.41 1009.93 1009.47 1009.04 1008.66 1008.33 1008.07 1007.88 1007.75 1007.68 1007.68 1007.73 1007.84 1008.00 1008.22 1008.49 1008.81 1009.17 1009.57 1009.99 1010.42 1010.86 1011.28 1011.68 1012.05 1012.40 1012.72 1013.01 1013.30 1013.59 1013.88 1014.19 1014.52 1014.87 1015.24 1015.62 1015.99
1010.52 1010.01 1009.49 1008.99 1008.50 1008.06 1007.66 1007.32 1007.04 1006.82 1006.65 1006.55 1006.52 1006.55 1006.65 1006.82 1007.07 1007.40 1007.79 1008.24 1008.74 1009.27 1009.82 1010.35 1010.86 1011.34 1011.79 1012.19 1012.55 1012.89 1013.22 1013.54 1013.87 1014.22 1014.59 1014.98 1015.37 1015.77
1010.03 1009.53 1009.00 1008.48 1007.97 1007.49 1007.04 1006.63 1006.26 1005.95 1005.68 1005.46 1005.31 1005.23 1005.23 1005.32 1005.51 1005.80 1006.20 1006.68 1007.24 1007.87 1008.52 1009.19 1009.84 1010.46 1011.04 1011.57 1012.05 1012.48 1012.88 1013.25 1013.62 1014.00 1014.38 1014.78 1015.18 1015.59
1009.46 1008.98 1008.48 1007.97 1007.47 1006.97 1006.50 1006.04 1005.61 1005.20 1004.82 1004.48 1004.20 1003.98 1003.84 1003.81 1003.90 1004.12 1004.47 1004.96 1005.56 1006.25 1007.01 1007.81 1008.61 1009.40 1010.14 1010.83 1011.45 1012.01 1012.52 1012.98 1013.41 1013.82 1014.22 1014.63 1015.04 1015.44
1008.83 1008.39 1007.93 1007.46 1006.98 1006.51 1006.03 1005.56 1005.08 1004.60 1004.13 1003.67 1003.24 1002.87 1002.59 1002.41 1002.37 1002.47 1002.75 1003.18 1003.78 1004.51 1005.35 1006.26 1007.21 1008.15 1009.07 1009.93 1010.72 1011.43 1012.06 1012.63 1013.14 1013.61 1014.04 1014.47 1014.87 1015.27
1008.14 1007.74 1007.33 1006.91 1006.49 1006.05 1005.61 1005.14 1004.65 1004.13 1003.58 1003.03 1002.48 1001.97 1001.52 1001.19 1000.99 1000.96 1001.11 1001.47 1002.02 1002.75 1003.62 1004.61 1005.66 1006.75 1007.82 1008.84 1009.79 1010.66 1011.43 1012.12 1012.72 1013.26 1013.75 1014.19 1014.61 1015.00
Thickness
5689 5689 5688 5687 5687 5687 5686 5683 5678 5674 5677 5686 5691 5697 5700 5702 5704 5706 5708 5710 5713 5714 5715 5716 5717 5719 5720 5721 5721 5722 5722 5722 5723 5723 5723 5723 5723 5723
5689 5687 5687 5687 5686 5686 5685 5684 5683 5678 5676 5683 5688 5693 5697 5699 5701 5703 5705 5707 5709 5710 5711 5712 5713 5714 5715 5716 5717 5718 5718 5718 5718 5719 5719 5719 5718 5718
5689 5687 5686 5686 5684 5684 5683 5682 5681 5680 5676 5680 5686 5690 5692 5694 5696 5699 5701 5703 5705 5706 5707 5708 5709 5710 5711 5711 5712 5713 5713 5713 5713 5713 5714 5714 5713 5713
5688 5687 5685 5685 5683 5683 5682 5681 5680 5680 5677 5676 5680 5684 5687 5690 5692 5695 5697 5699 5700 5702 5703 5704 5705 5705 5706 5707 5707 5707 5708 5708 5708 5708 5708 5708 5708 5707
5689 5687 5685 5683 5681 5681 5680 5679 5678 5679 5678 5676 5677 5680 5683 5686 5687 5690 5692 5694 5696 5697 5698 5699 5700 5700 5701 5702 5702 5702 5702 5702 5702 5702 5702 5702 5701 5701
5690 5687 5685 5683 5680 5679 5679 5677 5677 5676 5675 5674 5674 5676 5679 5682 5683 5683 5684 5687 5689 5692 5693 5693 5695 5695 5696 5696 5696 5697 5696 5696 5696 5696 5696 5696 5695 5695
5688 5686 5685 5683 5681 5679 5678 5676 5675 5673 5672 5671 5671 5673 5674 5676 5677 5679 5679 5681 5683 5686 5687 5688 5689 5689 5689 5690 5690 5690 5690 5690 5689 5689 5689 5689 5689 5688
5685 5684 5683 5682 5680 5679 5677 5676 5674 5672 5670 5669 5669 5669 5671 5674 5675 5676 5675 5675 5674 5680 5681 5681 5683 5682 5683 5683 5684 5684 5683 5683 5683 5682 5682 5682 5681 5681
5682 5681 5681 5681 5678 5676 5674 5674 5673 5673 5672 5670 5668 5668 5670 5672 5673 5672 5672 5672 5672 5676 5676 5674 5676 5675 5676 5677 5677 5677 5677 5676 5675 5675 5675 5674 5674 5674
5680 5679 5677 5676 5675 5673 5672 5671 5670 5670 5670 5670 5669 5669 5670 5671 5672 5672 5671 5670 5670 5672 5673 5668 5669 5669 5670 5670 5670 5670 5670 5669 5669 5668 5667 5666 5666 5666
5677 5676 5675 5673 5673 5671 5669 5668 5667 5667 5668 5668 5668 5668 5668 5669 5669 5668 5665 5663 5661 5663 5667 5664 5663 5662 5662 5662 5662 5663 5663 5662 5661 5661 5660 5659 5659 5659
5672 5671 5671 5669 5668 5667 5664 5663 5662 5663 5664 5664 5663 5663 5663 5664 5665 5664 5662 5659 5657 5656 5660 5659 5658 5657 5654 5655 5655 5655 5654 5654 5654 5653 5652 5652 5652 5651
5665 5665 5665 5664 5663 5662 5660 5659 5659 5659 5659 5659 5659 5658 5658 5659 5659 5659 5659 5658 5654 5653 5655 5655 5652 5651 5649 5647 5647 5647 5647 5647 5646 5645 5644 5644 5644 5643
5658 5659 5659 5659 5657 5656 5655 5655 5655 5654 5653 5653 5653 5653 5652 5653 5653 5654 5654 5653 5653 5651 5651 5651 5647 5645 5643 5641 5640 5640 5640 5641 5640 5638 5636 5636 5635 5635
5651 5652 5651 5651 5650 5649 5649 5649 5648 5647 5647 5646 5647 5647 5648 5648 5648 5647 5647 5647 5646 5646 5646 5645 5643 5641 5639 5636 5634 5634 5632 5632 5633 5631 5629 5628 5627 5626
5640 5641 5642 5642 5641 5642 5642 5641 5641 5641 5641 5641 5642 5642 5642 5641 5640 5640 5638 5638 5636 5635 5637 5638 5637 5635 5631 5630 5629 5627 5626 5625 5624 5623 5622 5620 5619 5619
5630 5629 5629 5630 5631 5633 5634 5634 5635 5635 5634 5635 5635 5635 5634 5634 5633 5633 5632 5630 5628 5626 5625 5627 5627 5626 5624 5623 5620 5620 5618 5617 5617 5615 5613 5611 5610 5611
5620 5620 5621 5622 5623 5625 5625 5626 5627 5627 5628 5628 5628 5628 5627 5627 5626 5625 5624 5623 5621 5620 5618 5617 5616 5615 5613 5612 5612 5612 5610 5609 5608 5607 5605 5602 5600 5600
5610 5612 5613 5614 5615 5616 5617 5617 5618 5619 5620 5620 5620 5621 5621 5620 5618 5617 5616 5614 5613 5612 5611 5610 5608 5606 5603 5602 5602 5602 5601 5600 5598 5597 5596 5595 5592 5591
5601 5603 5604 5605 5606 5607 5607 5608 5609 5609 5609 5610 5610 5612 5612 5611 5610 5609 5607 5606 5605 5603 5601 5601 5600 5600 5598 5596 5594 5592 5593 5592 5591 5588 5587 5586 5583 5582
5591 5593 5594 5596 5596 5597 5597 5598 5598 5599 5600 5600 5601 5602 5602 5602 5601 5601 5599 5598 5596 5594 5593 5592 5593 5593 5591 5588 5585 5583 5583 5584 5584 5581 5579 5576 5573 5572
5580 5582 5583 5585 5586 5586 5587 5587 5587 5588 5589 5590 5591 5592 5593 5592 5591 5591 5590 5589 5588 5587 5585 5584 5583 5582 5581 5579 5577 5574 5572 5572 5572 5572 5571 5570 5567 5565
5569 5571 5572 5573 5575 5575 5576 5576 5577 5578 5579 5580 5581 5581 5582 5582 5582 5581 5581 5580 5579 5577 5575 5573 5573 5573 5572 5571 5569 5567 5565 5563 5561 5559 5558 5559 5559 5559